• In Deutschland
  • Länderverzeichnis
  • Für 7 Tage
  • Wassertemperatur
  • Satellitenkarten
  • Wetterkarte
  • Widgets
  • user-avatar
    Anmelden

    Stündliche Wetter Ravensburg

    Heute, 23 Juli, Montag

    Zeit Temperatur Niederschläge Wind Luftdruck Luftfeuchtigkeit
    00:00 +16°C° 0,1 mm 1 m/S 721 mmHg 96%
    01:00 +16°C° 0,1 mm 1 m/S 721 mmHg 96%
    02:00 +16°C° 0 mm 1 m/S 721 mmHg 96%
    03:00 +15°C° 0 mm 1 m/S 721 mmHg 97%
    04:00 +15°C° 0 mm 1 m/S 721 mmHg 97%
    05:00 +16°C° 0 mm 1 m/S 722 mmHg 96%
    06:00 +18°C° 0 mm 1 m/S 722 mmHg 96%
    07:00 +16°C° 0 mm 0 m/S 722 mmHg 95%
    08:00 +17°C° 0,1 mm 0 m/S 722 mmHg 92%
    09:00 +18°C° 0,1 mm 0 m/S 722 mmHg 89%
    10:00 +21°C° 0,1 mm 1 m/S 722 mmHg 86%
    11:00 +23°C° 0,3 mm 1 m/S 722 mmHg 81%
    12:00 +24°C° 0,3 mm 1 m/S 722 mmHg 75%
    13:00 +25°C° 0,3 mm 1 m/S 722 mmHg 70%
    14:00 +25°C° 0,2 mm 1 m/S 722 mmHg 70%
    15:00 +26°C° 0,2 mm 1 m/S 722 mmHg 70%
    16:00 +26°C° 0,2 mm 2 m/S 722 mmHg 71%
    17:00 +25°C° 0,2 mm 2 m/S 722 mmHg 76%
    18:00 +24°C° 0,2 mm 1 m/S 722 mmHg 81%
    19:00 +23°C° 0,2 mm 1 m/S 722 mmHg 86%
    20:00 +22°C° 0 mm 1 m/S 722 mmHg 89%
    21:00 +20°C° 0 mm 1 m/S 723 mmHg 91%
    22:00 +19°C° 0 mm 1 m/S 723 mmHg 93%
    23:00 +19°C° 0 mm 1 m/S 723 mmHg 94%

    Morgen, 24 Juli, Dienstag

    Zeit Temperatur Niederschläge Wind Luftdruck Luftfeuchtigkeit
    00:00 +18°C° 0 mm 1 m/S 722 mmHg 94%
    01:00 +18°C° 0 mm 1 m/S 722 mmHg 94%
    02:00 +16°C° 0 mm 1 m/S 722 mmHg 94%
    03:00 +16°C° 0 mm 1 m/S 722 mmHg 93%
    04:00 +16°C° 0 mm 1 m/S 721 mmHg 93%
    05:00 +18°C° 0 mm 1 m/S 721 mmHg 91%
    06:00 +19°C° 0 mm 1 m/S 721 mmHg 89%
    07:00 +20°C° 0 mm 1 m/S 721 mmHg 88%
    08:00 +22°C° 0 mm 1 m/S 721 mmHg 81%
    09:00 +24°C° 0 mm 2 m/S 721 mmHg 74%
    10:00 +26°C° 0 mm 2 m/S 721 mmHg 67%
    11:00 +26°C° 0 mm 3 m/S 721 mmHg 65%
    12:00 +27°C° 0 mm 3 m/S 721 mmHg 63%
    13:00 +28°C° 0 mm 3 m/S 720 mmHg 60%
    14:00 +28°C° 0 mm 3 m/S 720 mmHg 61%
    15:00 +28°C° 0 mm 3 m/S 720 mmHg 63%
    16:00 +28°C° 0 mm 4 m/S 719 mmHg 64%
    17:00 +27°C° 0 mm 3 m/S 720 mmHg 70%
    18:00 +26°C° 0 mm 3 m/S 720 mmHg 76%
    19:00 +25°C° 0 mm 2 m/S 720 mmHg 82%
    20:00 +23°C° 0 mm 2 m/S 720 mmHg 85%
    21:00 +21°C° 0 mm 2 m/S 720 mmHg 89%
    22:00 +20°C° 0 mm 1 m/S 720 mmHg 93%
    23:00 +19°C° 0 mm 1 m/S 720 mmHg 93%

    übermorgen, 25 Juli, Mittwoch

    Zeit Temperatur Niederschläge Wind Luftdruck Luftfeuchtigkeit
    00:00 +19°C° 0 mm 1 m/S 720 mmHg 94%
    01:00 +18°C° 0 mm 1 m/S 720 mmHg 94%
    02:00 +18°C° 0 mm 1 m/S 720 mmHg 94%
    03:00 +18°C° 0 mm 1 m/S 720 mmHg 94%
    04:00 +18°C° 0 mm 1 m/S 720 mmHg 95%
    05:00 +19°C° 0 mm 1 m/S 720 mmHg 92%
    06:00 +18°C° 0 mm 0 m/S 720 mmHg 90%
    07:00 +19°C° 0 mm 0 m/S 721 mmHg 88%
    08:00 +23°C° 0 mm 1 m/S 721 mmHg 81%
    09:00 +25°C° 0 mm 1 m/S 721 mmHg 75%
    10:00 +26°C° 0 mm 1 m/S 721 mmHg 68%
    11:00 +27°C° 0 mm 1 m/S 721 mmHg 64%
    12:00 +28°C° 0 mm 2 m/S 721 mmHg 61%
    13:00 +29°C° 0 mm 2 m/S 720 mmHg 57%
    14:00 +29°C° 0 mm 2 m/S 720 mmHg 58%
    15:00 +29°C° 0 mm 2 m/S 720 mmHg 59%
    16:00 +29°C° 0 mm 2 m/S 720 mmHg 60%
    17:00 +28°C° 0 mm 2 m/S 720 mmHg 66%
    18:00 +26°C° 0 mm 2 m/S 720 mmHg 73%
    19:00 +25°C° 0 mm 2 m/S 720 mmHg 79%
    20:00 +23°C° 0 mm 1 m/S 720 mmHg 82%
    21:00 +22°C° 0 mm 1 m/S 721 mmHg 86%
    22:00 +20°C° 0 mm 1 m/S 721 mmHg 89%
    23:00 +20°C° 0 mm 1 m/S 721 mmHg 90%

    26 Juli, Donnerstag

    Zeit Temperatur Niederschläge Wind Luftdruck Luftfeuchtigkeit
    00:00 +19°C° 0 mm 1 m/S 721 mmHg 90%
    01:00 +19°C° 0 mm 1 m/S 721 mmHg 91%
    02:00 +19°C° 0 mm 1 m/S 721 mmHg 91%
    03:00 +18°C° 0 mm 1 m/S 721 mmHg 91%
    04:00 +18°C° 0 mm 1 m/S 721 mmHg 92%
    05:00 +17°C° 0 mm 0 m/S 721 mmHg 89%
    06:00 +18°C° 0 mm 0 m/S 721 mmHg 87%
    07:00 +20°C° 0 mm 0 m/S 721 mmHg 84%
    08:00 +21°C° 0 mm 0 m/S 721 mmHg 78%
    09:00 +25°C° 0 mm 1 m/S 721 mmHg 71%
    10:00 +27°C° 0 mm 1 m/S 721 mmHg 65%
    11:00 +28°C° 0 mm 1 m/S 721 mmHg 62%
    12:00 +29°C° 0 mm 2 m/S 721 mmHg 60%
    13:00 +29°C° 0 mm 2 m/S 721 mmHg 57%
    14:00 +29°C° 0,1 mm 2 m/S 721 mmHg 60%
    15:00 +29°C° 0,1 mm 2 m/S 721 mmHg 62%
    16:00 +29°C° 0,1 mm 2 m/S 720 mmHg 65%
    17:00 +28°C° 0,5 mm 2 m/S 720 mmHg 71%
    18:00 +26°C° 0,5 mm 2 m/S 721 mmHg 77%
    19:00 +25°C° 0,5 mm 1 m/S 721 mmHg 83%
    20:00 +24°C° 0,1 mm 1 m/S 721 mmHg 85%
    21:00 +22°C° 0,1 mm 1 m/S 721 mmHg 88%
    22:00 +21°C° 0,1 mm 1 m/S 721 mmHg 90%
    23:00 +21°C° 0 mm 1 m/S 721 mmHg 91%

    27 Juli, Freitag

    Zeit Temperatur Niederschläge Wind Luftdruck Luftfeuchtigkeit
    00:00 +20°C° 0 mm 1 m/S 721 mmHg 91%
    01:00 +20°C° 0 mm 1 m/S 721 mmHg 91%
    02:00 +19°C° 0 mm 1 m/S 721 mmHg 92%
    03:00 +19°C° 0 mm 1 m/S 721 mmHg 92%
    04:00 +19°C° 0 mm 1 m/S 721 mmHg 92%
    05:00 +20°C° 0 mm 1 m/S 721 mmHg 90%
    06:00 +19°C° 0 mm 0 m/S 721 mmHg 88%
    07:00 +20°C° 0 mm 0 m/S 721 mmHg 87%
    08:00 +22°C° 0 mm 0 m/S 721 mmHg 79%
    09:00 +26°C° 0 mm 1 m/S 721 mmHg 71%
    10:00 +28°C° 0 mm 1 m/S 721 mmHg 64%
    11:00 +28°C° 0 mm 1 m/S 721 mmHg 60%
    12:00 +29°C° 0 mm 1 m/S 721 mmHg 56%
    13:00 +30°C° 0 mm 2 m/S 721 mmHg 53%
    14:00 +30°C° 0 mm 2 m/S 721 mmHg 54%
    15:00 +30°C° 0 mm 2 m/S 721 mmHg 55%
    16:00 +30°C° 0 mm 2 m/S 721 mmHg 57%
    17:00 +28°C° 0,1 mm 2 m/S 721 mmHg 64%
    18:00 +27°C° 0,1 mm 1 m/S 721 mmHg 71%
    19:00 +26°C° 0,1 mm 1 m/S 721 mmHg 78%
    20:00 +24°C° 0,1 mm 1 m/S 721 mmHg 80%
    21:00 +23°C° 0,1 mm 1 m/S 721 mmHg 83%
    22:00 +21°C° 0,1 mm 1 m/S 721 mmHg 86%
    23:00 +21°C° 0 mm 1 m/S 721 mmHg 87%

    28 Juli, Samstag

    Zeit Temperatur Niederschläge Wind Luftdruck Luftfeuchtigkeit
    00:00 +20°C° 0 mm 1 m/S 721 mmHg 88%
    01:00 +20°C° 0 mm 1 m/S 721 mmHg 88%
    02:00 +20°C° 0 mm 1 m/S 721 mmHg 89%
    03:00 +19°C° 0 mm 1 m/S 721 mmHg 90%
    04:00 +19°C° 0 mm 1 m/S 721 mmHg 90%
    05:00 +20°C° 0 mm 1 m/S 721 mmHg 88%
    06:00 +21°C° 0 mm 1 m/S 721 mmHg 86%
    07:00 +22°C° 0 mm 1 m/S 721 mmHg 84%
    08:00 +24°C° 0,2 mm 1 m/S 721 mmHg 79%
    09:00 +26°C° 0,2 mm 1 m/S 721 mmHg 74%
    10:00 +27°C° 0,2 mm 1 m/S 722 mmHg 68%
    11:00 +28°C° 0,1 mm 1 m/S 721 mmHg 63%
    12:00 +29°C° 0,1 mm 1 m/S 721 mmHg 58%
    13:00 +30°C° 0,1 mm 2 m/S 721 mmHg 53%
    14:00 +30°C° 0,1 mm 2 m/S 721 mmHg 55%
    15:00 +30°C° 0,1 mm 2 m/S 721 mmHg 57%
    16:00 +30°C° 0,1 mm 2 m/S 721 mmHg 59%
    17:00 +28°C° 0,1 mm 2 m/S 721 mmHg 65%
    18:00 +27°C° 0,1 mm 2 m/S 721 mmHg 71%
    19:00 +26°C° 0,1 mm 1 m/S 721 mmHg 78%
    20:00 +24°C° 0,1 mm 1 m/S 721 mmHg 80%
    21:00 +23°C° 0,1 mm 1 m/S 722 mmHg 82%
    22:00 +21°C° 0,1 mm 1 m/S 722 mmHg 85%
    23:00 +21°C° 0 mm 1 m/S 721 mmHg 86%
    Mehr zeigen